Regional Weather Roundup
Issued by NWS

Home | Current Version | Previous Version | Text Only | Print | Product List | Glossary Off
Versions: 1 2 3 4 5 6 7 8 9 10 11 12 13 14 15 16 17 18 19 20 21 22 23 24 25 26 27 28 29 30 31 32 33 34 35 36 37 38 39 40 41 42 43 44 45 46 47 48 49 50

000
ASUS44 KMEG 060800
RWRTN
TENNESSEE HOURLY STATE WEATHER ROUNDUP
NATIONAL WEATHER SERVICE MEMPHIS TN
200 AM CST FRI MAR 06 2015

TNZ002-004-019-021-049-052-054-088>092-060900-
WEST TENNESSEE

CITY           SKY/WX    TMP DP  RH WIND       PRES   REMARKS
MEMPHIS INTL   PTCLDY    20   9  62 NE6       30.57F WCI  12
NWS MEMPHIS      N/A     13 N/A N/A MISG        N/A
JACKSON        MOCLDY    14   6  70 NE3       30.57F
DYERSBURG      PTCLDY    12  -6  44 CALM      30.61F
UNION CITY     CLEAR      9   7  92 CALM      30.58F
PARIS            N/A      0  -4  85 CALM      30.56F
LEXINGTON      CLEAR     12   5  73 N6        30.55F WCI   3
SAVANNAH       CLEAR     16   7  67 CALM      30.55F
$$

TNZ008-025-027-028-033-062-065-066-060900-
NORTH MIDDLE TENNESSEE

CITY           SKY/WX    TMP DP  RH WIND       PRES   REMARKS
NASHVILLE      PTCLDY    13   6  74 N3        30.55S
CLARKSVILLE    PTCLDY     5   2  87 NW5       30.58S WCI  -4
COOKEVILLE     CLEAR     16  12  86 CALM      30.47S
CROSSVILLE     MOCLDY    14   9  80 NE7       30.41R WCI   4
$$

TNZ061-075-076-078-094-096-097-060900-
SOUTH MIDDLE TENNESSEE

CITY           SKY/WX    TMP DP  RH WIND       PRES   REMARKS
FAYETTEVILLE   CLEAR     14  10  85 N5          N/A  WCI   6
TULLAHOMA      CLEAR     12   9  85 N5          N/A  WCI   4
WINCHESTER     CLEAR     18  12  79 VRB5      30.48R WCI  11
COLUMBIA         N/A     12  10  92 N3        30.52S
SHELBYVILLE    CLEAR     14  10  85 N7        30.52S WCI   4
$$

TNZ017-018-042-046-047-060900-
NORTHEAST TENNESSEE

CITY           SKY/WX    TMP DP  RH WIND       PRES   REMARKS
TRI CITIES     CLOUDY    18  12  77 N7        30.42S WCI   9
ELIZABETHTON   CLOUDY    19  12  73 SW5       30.39F WCI  13
$$

TNZ012-013-036-069-073-074-060900-
CENTRAL EAST TENNESSEE

CITY           SKY/WX    TMP DP  RH WIND       PRES   REMARKS
KNOXVILLE      CLOUDY    21  15  78 N9        30.45R WCI  11
OAK RIDGE      CLOUDY    20  11  68 VRB3      30.48R
GATLINBURG     CLOUDY    21  19  93 NW6       30.44R WCI  14
$$

TNZ083-085-099-060900-
SOUTHEAST TENNESSEE

CITY           SKY/WX    TMP DP  RH WIND       PRES   REMARKS
CHATTANOOGA    CLOUDY    24  13  62 N13G21    30.46S WCI  12
$$

SKY/WX REPORTED AS FAIR MEANS FEW OR NO CLOUDS BELOW
12 THOUSAND FEET.



USA.gov is the U.S. government's official web portal to all federal, state and local government web resources and services.